Regional Weather Roundup
Issued by NWS Sioux Falls, SD

Home | Current Version | Previous Version | Graphics & Text | Print | Product List | Glossary On
Versions: 1 2 3 4 5 6 7 8 9 10 11 12 13 14 15 16 17 18 19 20 21 22 23 24 25 26 27 28 29 30 31 32 33 34 35 36 37 38 39 40 41 42 43 44 45 46 47 48 49 50
000
ASUS43 KFSD 020002
RWRFSD

WEATHER ROUNDUP FOR SE SOUTH DAKOTA/SW MINNESOTA/NW IOWA
NATIONAL WEATHER SERVICE SIOUX FALLS SD
600 PM CST THU DEC 01 2016

NOTE: "FAIR" INDICATES FEW OR NO CLOUDS BELOW 12,000 FEET WITH NO
SIGNIFICANT WEATHER AND OR OBSTRUCTIONS TO VISIBILITY.


SDZ038>040-050-052>070-020100-
SOUTHEAST SOUTH DAKOTA

CITY           SKY/WX    TMP DP  RH WIND       PRES   REMARKS
CHAMBERLAIN    LGT SNOW  32  31  97 NW6       30.02R WCI  26
6HR MIN TEMP:  32; 6HR MAX TEMP:  33;

HURON          CLOUDY    32  31  96 NW5       30.01S WCI  27
6HR MIN TEMP:  32; 6HR MAX TEMP:  33;

MADISON        CLOUDY    30  30 100 NW9       29.98R WCI  22
MITCHELL       CLOUDY    33  31  92 NW6       30.03R WCI  28
6HR MIN TEMP:  33; 6HR MAX TEMP:  34;

SIOUX FALLS    CLOUDY    33  31  92 NW6       30.00R WCI  28
6HR MIN TEMP:  33; 6HR MAX TEMP:  34; 6HR PCP: TRACE;

WINNER         FAIR      29  26  89 CALM      30.01R
YANKTON        CLOUDY    34  27  75 W8        30.02S WCI  27
$$

MNZ071-072-080-081-089-090-097-098-020100-
SOUTHWEST MINNESOTA

CITY           SKY/WX    TMP DP  RH WIND       PRES   REMARKS
FAIRMONT       CLOUDY    34  31  88 NW10      29.97R WCI  26
JACKSON        CLOUDY    32  30  93 NW8       29.97R WCI  25
LUVERNE        CLOUDY    32  30  93 W7        29.99R WCI  26
MARSHALL       CLOUDY    33  29  85 NW9       29.99R WCI  25
6HR MIN TEMP:  33; 6HR MAX TEMP:  34; 6HR PCP: TRACE;

MONTEVIDEO     CLOUDY    32  32 100 N12       30.01R WCI  23
PIPESTONE      CLOUDY    34  30  86 N5        29.96R WCI  30
REDWOOD FALLS  CLOUDY    34  30  85 NW7       29.97R WCI  28
TRACY          CLOUDY    33  32  94 NW7       29.98R WCI  27
WINDOM         CLOUDY    34  32  93 NW12      29.96S WCI  25
WORTHINGTON    CLOUDY    32  29  88 NW8       29.98R WCI  25
$$

IAZ001>003-012>014-020>022-031-032-NEZ013-014-SDZ071-020100-
NORTHWEST IOWA

CITY           SKY/WX    TMP DP  RH WIND       PRES   REMARKS
CHEROKEE       CLOUDY    33  31  94 NW6       30.00S WCI  27
DENISON        CLOUDY    34  28  80 W7        30.00R WCI  28
ESTHERVILLE    CLOUDY    33  31  92 NW10      29.97R WCI  25
LE MARS        CLOUDY    34  30  86 W6        30.02S WCI  29
ORANGE CITY    CLOUDY    32  30  93 CALM      30.00R
SHELDON        CLOUDY    34  32  93 NW7       29.99R WCI  28
SIOUX CITY     CLOUDY    36  29  75 NW6       30.03R
6HR MIN TEMP:  35; 6HR MAX TEMP:  37;

SPENCER        CLOUDY    34  31  88 W15       29.99R WCI  24
6HR MIN TEMP:  34; 6HR MAX TEMP:  35; 6HR PCP: TRACE;

STORM LAKE     CLOUDY    32  30  93 W8        29.99R WCI  25
$$

ABBREVIATIONS USED IN REMARKS
   TC - TEMPERATURE IN CELSIUS
  WCI - WIND CHILL INDEX
   HX - HEAT INDEX
  VSB - VISIBILITY





USA.gov is the U.S. government's official web portal to all federal, state and local government web resources and services.